| time (UTC) | temp F | wind direction | speed MPH | gust MPH | rain 1hr in | rain 24hr in | rain mn in | humidity % | barometer mb |
| 20260504081541 | 67 | 165 | 4.0 | 10.0 | 0.00 | 0.00 | 0.00 | 56 | 1008.7 |
| 20260504050023 | 71 | 180 | 4.0 | 9.0 | 0.00 | 0.00 | 0.00 | 52 | 1010.6 |
| 20260504044533 | 71 | 170 | 4.0 | 10.0 | 0.00 | 0.00 | 0.00 | 50 | 1010.7 |
| 20260504043024 | 71 | 165 | 3.0 | 8.0 | 0.00 | 0.00 | 0.00 | 49 | 1010.9 |
| 20260504041521 | 71 | 159 | 3.0 | 11.0 | 0.00 | 0.00 | 0.00 | 48 | 1011.0 |
| 20260504040021 | 72 | 173 | 3.0 | 7.0 | 0.00 | 0.00 | 0.00 | 47 | 1011.0 |
| 20260504034520 | 72 | 177 | 5.0 | 12.0 | 0.00 | 0.00 | 0.00 | 46 | 1011.0 |
| 20260504033021 | 72 | 157 | 3.0 | 8.0 | 0.00 | 0.00 | 0.00 | 47 | 1010.8 |
| 20260504031522 | 73 | 169 | 4.0 | 10.0 | 0.00 | 0.00 | 0.00 | 46 | 1011.0 |
| 20260504030022 | 73 | 173 | 6.0 | 10.0 | 0.00 | 0.00 | 0.00 | 45 | 1010.7 |
| 20260504024521 | 73 | 178 | 4.0 | 8.0 | 0.00 | 0.00 | 0.00 | 45 | 1010.6 |
| 20260504023022 | 74 | 191 | 5.0 | 9.0 | 0.00 | 0.00 | 0.00 | 44 | 1010.8 |
| 20260504021520 | 74 | 162 | 4.0 | 13.0 | 0.00 | 0.00 | 0.00 | 43 | 1010.8 |
| 20260504020023 | 74 | 164 | 3.0 | 7.0 | 0.00 | 0.00 | 0.00 | 42 | 1010.6 |
| 20260504014523 | 75 | 171 | 3.0 | 10.0 | 0.00 | 0.00 | 0.00 | 40 | 1010.4 |
| 20260504013025 | 75 | 161 | 4.0 | 9.0 | 0.00 | 0.00 | 0.00 | 39 | 1010.4 |
| 20260504011518 | 76 | 166 | 4.0 | 10.0 | 0.00 | 0.00 | 0.00 | 39 | 1010.3 |
| 20260504010018 | 77 | 192 | 4.0 | 9.0 | 0.00 | 0.00 | 0.00 | 39 | 1010.2 |
| 20260504004519 | 77 | 186 | 4.0 | 10.0 | 0.00 | 0.00 | 0.00 | 38 | 1010.3 |
| 20260504003018 | 78 | 167 | 4.0 | 11.0 | 0.00 | 0.00 | 0.00 | 38 | 1010.2 |
| 20260504001519 | 79 | 183 | 4.0 | 13.0 | 0.00 | 0.00 | 0.00 | 38 | 1010.3 |
| 20260504000017 | 79 | 155 | 3.0 | 11.0 | 0.00 | 0.00 | 0.00 | 37 | 1010.4 |
| 20260503234519 | 80 | 185 | 5.0 | 13.0 | 0.00 | 0.00 | 0.00 | 35 | 1010.5 |
| 20260503233018 | 80 | 173 | 5.0 | 10.0 | 0.00 | 0.00 | 0.00 | 35 | 1010.6 |
| 20260503231521 | 81 | 144 | 6.0 | 13.0 | 0.00 | 0.00 | 0.00 | 35 | 1010.7 |
| 20260503230016 | 82 | 169 | 5.0 | 12.0 | 0.00 | 0.00 | 0.00 | 33 | 1010.8 |
| 20260503224515 | 82 | 179 | 3.0 | 8.0 | 0.00 | 0.00 | 0.00 | 33 | 1010.8 |
| 20260503223013 | 82 | 161 | 5.0 | 11.0 | 0.00 | 0.00 | 0.00 | 33 | 1010.9 |
| 20260503221512 | 82 | 178 | 3.0 | 9.0 | 0.00 | 0.00 | 0.00 | 33 | 1011.1 |
| 20260503220010 | 83 | 177 | 3.0 | 11.0 | 0.00 | 0.00 | 0.00 | 34 | 1011.2 |
| 20260503214511 | 83 | 205 | 1.0 | 6.0 | 0.00 | 0.00 | 0.00 | 34 | 1011.3 |
| 20260503213010 | 83 | 186 | 4.0 | 9.0 | 0.00 | 0.00 | 0.00 | 32 | 1011.8 |
| 20260503211509 | 83 | 188 | 4.0 | 8.0 | 0.00 | 0.00 | 0.00 | 32 | 1011.8 |
| 20260503210008 | 82 | 182 | 4.0 | 7.0 | 0.00 | 0.00 | 0.00 | 33 | 1012.1 |
| 20260503204504 | 82 | 186 | 4.0 | 9.0 | 0.00 | 0.00 | 0.00 | 34 | 1012.5 |
| 20260503203003 | 82 | 175 | 5.0 | 12.0 | 0.00 | 0.00 | 0.00 | 36 | 1012.7 |
| 20260503201502 | 83 | 298 | 2.0 | 9.0 | 0.00 | 0.00 | 0.00 | 36 | 1013.1 |
| 20260503200059 | 82 | 192 | 2.0 | 11.0 | 0.00 | 0.00 | 0.00 | 36 | 1013.3 |
| 20260503194559 | 82 | 275 | 2.0 | 8.0 | 0.00 | 0.00 | 0.00 | 35 | 1013.6 |
| 20260503193109 | 82 | 178 | 4.0 | 8.0 | 0.00 | 0.00 | 0.00 | 36 | 1013.8 |
| 20260503191554 | 82 | 265 | 4.0 | 8.0 | 0.00 | 0.00 | 0.00 | 38 | 1014.1 |
| 20260503190105 | 82 | 193 | 4.0 | 8.0 | 0.00 | 0.00 | 0.00 | 38 | 1014.1 |
| 20260503184556 | 81 | 211 | 4.0 | 9.0 | 0.00 | 0.00 | 0.00 | 38 | 1014.4 |
| 20260503183100 | 80 | 150 | 4.0 | 12.0 | 0.00 | 0.00 | 0.00 | 39 | 1014.6 |
| 20260503181548 | 80 | 195 | 3.0 | 9.0 | 0.00 | 0.00 | 0.00 | 42 | 1015.0 |
| 20260503180054 | 79 | 181 | 3.0 | 10.0 | 0.00 | 0.00 | 0.00 | 44 | 1015.3 |
| 20260503174544 | 79 | 194 | 3.0 | 8.0 | 0.00 | 0.00 | 0.00 | 45 | 1015.7 |
| 20260503173103 | 78 | 185 | 2.0 | 8.0 | 0.00 | 0.00 | 0.00 | 46 | 1015.7 |
| 20260503171548 | 78 | 205 | 4.0 | 8.0 | 0.00 | 0.00 | 0.00 | 46 | 1015.9 |
| 20260503110110 | 60 | 171 | 1.0 | 4.0 | 0.00 | 0.00 | 0.00 | 68 | 1015.4 |
| 20260503100109 | 60 | 169 | 0.0 | 5.0 | 0.00 | 0.00 | 0.00 | 67 | 1015.4 |